CZ-4 DEB, 27536

Orbit data source: Space-Track

CZ-4 DEB, 27536 is space debris in SSO originally from a launch on Thu, 14 Oct 1999 UTC launched from the Taiyaun Space Center, China (TSC). Debris objects in space refer to the collection of defunct objects orbiting the Earth. Examples of debris include non-operational satellites, rocket bodies, and fragments generated from explosions, collisions, or faulty payload assembly.

Loading next visibility...
Identifier
27536, 1999-057MP
Orbit
SSO
Country
Flag of CNCN / PRC
Related business
Manufacturer
Unknown
Mission
Spacecraft
Bus & Motor
Unknown
Mass
Unknown
Launch date (UTC)
1999-10-14 (26 years ago)
Launch vehicle
Unknown
Launch site
Taiyaun Space Center, China (TSC)
Object type
Payload
Rocket body
Debris
Shape & HBR
Unknown shape, 0.1 m
Radar Cross Section
Small (<0.1 m²)

Expand to show TLE details & history
Last TLE update: 14 hours ago

TLE from 14 hours ago
0 CZ-4 DEB
1 27536U 99057MP  26037.07618228  .00006122  00000-0  10771-2 0  9994
2 27536  98.4764  70.0225 0027765 133.2040 253.3564 14.67735243265495
Epoch: 2026-02-06T01:49Z
TLE epoch observation values (Epoch: 2026-02-06T01:49:42.148Z)
Latitude
25.98226°
Longitude
-97.76492°
Altitude
677.173 km
Speed
7.517 km/s
True Right ascension
04h 23m 31s
True Declination
25° 50' 44"
Sunlit
Object was in daylight at epoch
Visualization orbit readout
Latitude
Unknown
Longitude
Unknown
Altitude
Unknown
Speed
Unknown
Apparent Right ascension
Unknown
Apparent Declination
Unknown
Sunlit
N/A
Visualization observer readout
Local Sidereal Time
17:45:42
Azimuth
Unknown
Elevation
Unknown
Doppler factor
Unknown
Orbital elements
Apogee altitude
684.948 km
Perigee altitude
645.835 km
Semi-major axis
7,043.528 km
Eccentricity
0.00278
Inclination
98.4764°
RAAN
70.0225°
Arg. of periapsis
133.204°
True anomaly
253.05187°
Mean anomaly
253.3564°
Eccentric anomaly
253.2041°
Mean motion
3.67162 °/min
Orbital period
98.05 mins
BSTAR
0.0010771
Loading maneuver chart data...
Computing Atmospheric mass density...
Loading historical data...
Loading historical data...
Loading historical data...
Loading historical data...
Loading historical data...
Loading historical data...
Loading historical data...

Documentation

Showing up to 5 results
|